QPF
0.01 0.01 0.01 0.02 0.02 0.02 0.03 0.02 0.01 0.01 0.01 0.00 0.00 0.00 0.00 0.00 0.01 0.01 0.02 0.02 0.03 0.03 0.04 0.05 0.06 0.08 0.10 0.11 0.12 0.12 0.14 0.14 0.12 0.11 0.11 0.11 0.13 0.13 0.13 0.12 0.09 0.07 0.05
0.00 0.01 0.01 0.01 0.01 0.02 0.03 0.02 0.01 0.01 0.01 0.00 0.00 0.00 0.00 0.00 0.01 0.01 0.01 0.02 0.02 0.03 0.04 0.05 0.06 0.08 0.11 0.12 0.12 0.12 0.14 0.15 0.15 0.15 0.14 0.14 0.14 0.12 0.12 0.10 0.09 0.08 0.05
0.00 0.00 0.01 0.02 0.02 0.02 0.02 0.01 0.01 0.01 0.01 0.00 0.00 0.00 0.00 0.00 0.00 0.00 0.01 0.01 0.02 0.03 0.04 0.05 0.06 0.09 0.11 0.13 0.15 0.15 0.16 0.17 0.20 0.19 0.17 0.14 0.12 0.10 0.08 0.08 0.08 0.07 0.05
0.00 0.00 0.01 0.01 0.01 0.01 0.01 0.01 0.01 0.01 0.01 0.01 0.01 0.00 0.00 0.00 0.00 0.00 0.01 0.01 0.01 0.03 0.06 0.07 0.07 0.08 0.12 0.18 0.21 0.23 0.22 0.22 0.22 0.23 0.23 0.19 0.15 0.10 0.07 0.07 0.07 0.05 0.04
0.00 0.01 0.00 0.01 0.01 0.01 0.01 0.02 0.02 0.02 0.01 0.01 0.01 0.00 0.00 0.00 0.00 0.00 0.01 0.01 0.02 0.02 0.04 0.06 0.08 0.09 0.11 0.14 0.19 0.23 0.25 0.26 0.23 0.20 0.20 0.20 0.14 0.10 0.07 0.05 0.04 0.03 0.02
0.00 0.00 0.00 0.00 0.00 0.00 0.01 0.02 0.03 0.03 0.03 0.03 0.02 0.01 0.01 0.00 0.00 0.01 0.01 0.01 0.02 0.03 0.05 0.06 0.06 0.08 0.08 0.10 0.12 0.16 0.22 0.24 0.22 0.17 0.14 0.12 0.11 0.08 0.05 0.04 0.02 0.01 0.01
0.00 0.00 0.00 0.00 0.00 0.01 0.01 0.02 0.03 0.04 0.05 0.04 0.04 0.03 0.02 0.01 0.00 0.00 0.01 0.01 0.01 0.02 0.04 0.06 0.06 0.06 0.07 0.07 0.08 0.10 0.13 0.17 0.17 0.13 0.09 0.07 0.06 0.04 0.04 0.03 0.02 0.01 0.01
0.00 0.00 0.00 0.00 0.00 0.01 0.02 0.02 0.04 0.05 0.05 0.05 0.05 0.04 0.03 0.02 0.01 0.01 0.01 0.01 0.02 0.03 0.03 0.04 0.05 0.05 0.06 0.06 0.05 0.05 0.06 0.09 0.11 0.11 0.08 0.05 0.04 0.03 0.02 0.02 0.01 0.01 0.00
0.00 0.00 0.00 0.00 0.01 0.01 0.02 0.03 0.04 0.06 0.06 0.06 0.06 0.05 0.04 0.03 0.01 0.01 0.02 0.02 0.02 0.04 0.05 0.04 0.04 0.04 0.04 0.04 0.04 0.04 0.03 0.04 0.06 0.07 0.06 0.05 0.03 0.02 0.01 0.01 0.00 0.00 0.00
0.00 0.00 0.00 0.00 0.01 0.01 0.02 0.04 0.05 0.08 0.09 0.10 0.09 0.08 0.07 0.06 0.03 0.02 0.02 0.03 0.03 0.05 0.05 0.04 0.05 0.05 0.03 0.03 0.04 0.03 0.03 0.02 0.02 0.02 0.01 0.01 0.01 0.01 0.00 0.00 0.00 0.00 0.00
0.00 0.00 0.00 0.00 0.01 0.02 0.03 0.04 0.07 0.11 0.14 0.15 0.14 0.12 0.10 0.08 0.05 0.02 0.01 0.03 0.05 0.06 0.05 0.05 0.06 0.04 0.03 0.02 0.03 0.03 0.02 0.01 0.01 0.01 0.00 0.00 0.00 0.00 0.00 0.00 0.00 0.00 0.00
0.01 0.01 0.00 0.01 0.01 0.01 0.02 0.04 0.08 0.13 0.19 0.21 0.21 0.19 0.15 0.12 0.08 0.03 0.01 0.02 0.04 0.06 0.05 0.04 0.04 0.03 0.02 0.01 0.01 0.01 0.01 0.00 0.00 0.00 0.00 0.00 0.00 0.00 0.00 0.00 0.00 0.00 0.00
0.01 0.01 0.01 0.01 0.01 0.02 0.04 0.05 0.08 0.13 0.21 0.25 0.26 0.27 0.23 0.18 0.13 0.06 0.02 0.01 0.02 0.04 0.03 0.02 0.02 0.02 0.01 0.01 0.01 0.00 0.00 0.00 0.00 0.00 0.00 0.00 0.00 0.00 0.00 0.00 0.00 0.00 0.00
0.02 0.02 0.02 0.02 0.02 0.02 0.04 0.07 0.10 0.15 0.24 0.29 0.30 0.30 0.29 0.26 0.19 0.09 0.02 0.01 0.01 0.02 0.01 0.01 0.01 0.01 0.01 0.00 0.00 0.00 0.00 0.00 0.00 0.00 0.00 0.00 0.00 0.00 0.00 0.00 0.00 0.00 0.00
0.03 0.03 0.03 0.03 0.03 0.03 0.04 0.07 0.10 0.15 0.23 0.30 0.32 0.32 0.33 0.29 0.21 0.13 0.05 0.01 0.01 0.01 0.01 0.00 0.00 0.00 0.01 0.01 0.00 0.00 0.00 0.00 0.00 0.00 0.00 0.00 0.00 0.00 0.00 0.00 0.00 0.00 0.00
0.03 0.03 0.03 0.03 0.03 0.04 0.05 0.06 0.09 0.14 0.20 0.25 0.30 0.33 0.32 0.29 0.24 0.18 0.11 0.04 0.01 0.00 0.00 0.00 0.00 0.00 0.00 0.00 0.00 0.00 0.00 0.00 0.00 0.00 0.00 0.00 0.00 0.00 0.00 0.00 0.00 0.00 0.00
0.04 0.03 0.03 0.03 0.03 0.05 0.07 0.08 0.11 0.14 0.20 0.24 0.28 0.31 0.30 0.27 0.23 0.18 0.13 0.08 0.03 0.00 0.00 0.01 0.00 0.00 0.00 0.00 0.00 0.00 0.00 0.00 0.00 0.00 0.00 0.00 0.00 0.00 0.00 0.00 0.00 0.00 0.00
0.04 0.04 0.04 0.04 0.05 0.06 0.07 0.11 0.15 0.17 0.21 0.26 0.29 0.31 0.26 0.22 0.19 0.18 0.16 0.11 0.05 0.01 0.01 0.01 0.00 0.00 0.00 0.00 0.00 0.00 0.00 0.00 0.00 0.00 0.00 0.00 0.00 0.00 0.00 0.00 0.00 0.00 0.00
0.05 0.05 0.05 0.05 0.05 0.06 0.09 0.13 0.17 0.19 0.24 0.28 0.31 0.30 0.27 0.22 0.19 0.19 0.17 0.10 0.04 0.01 0.01 0.00 0.00 0.00 0.00 0.00 0.00 0.00 0.00 0.00 0.00 0.00 0.00 0.00 0.00 0.00 0.00 0.00 0.00 0.00 0.00
0.05 0.05 0.06 0.06 0.06 0.07 0.10 0.14 0.18 0.19 0.24 0.31 0.32 0.28 0.24 0.23 0.19 0.18 0.15 0.09 0.04 0.01 0.01 0.00 0.00 0.00 0.00 0.00 0.00 0.00 0.00 0.00 0.00 0.00 0.00 0.00 0.00 0.00 0.00 0.00 0.00 0.00 0.00
0.07 0.06 0.06 0.06 0.06 0.08 0.11 0.16 0.20 0.20 0.21 0.27 0.31 0.26 0.21 0.16 0.13 0.11 0.09 0.07 0.03 0.01 0.01 0.00 0.00 0.00 0.00 0.00 0.00 0.00 0.00 0.00 0.00 0.00 0.00 0.00 0.00 0.00 0.00 0.00 0.00 0.00 0.00
0.08 0.07 0.06 0.06 0.06 0.08 0.10 0.16 0.19 0.19 0.20 0.23 0.27 0.24 0.20 0.15 0.11 0.09 0.07 0.05 0.03 0.01 0.00 0.00 0.00 0.00 0.00 0.00 0.00 0.00 0.00 0.00 0.00 0.00 0.00 0.00 0.00 0.00 0.00 0.00 0.00 0.00 0.00
0.07 0.06 0.06 0.05 0.06 0.07 0.10 0.15 0.17 0.18 0.20 0.21 0.24 0.19 0.17 0.14 0.10 0.07 0.05 0.04 0.02 0.01 0.00 0.00 0.00 0.00 0.00 0.00 0.00 0.00 0.00 0.00 0.00 0.00 0.00 0.00 0.00 0.00 0.00 0.00 0.00 0.00 0.00
0.07 0.06 0.05 0.04 0.05 0.07 0.11 0.16 0.16 0.16 0.17 0.19 0.19 0.14 0.13 0.11 0.08 0.05 0.04 0.03 0.02 0.01 0.00 0.00 0.00 0.00 0.00 0.00 0.00 0.00 0.00 0.00 0.00 0.00 0.00 0.00 0.00 0.00 0.00 0.00 0.00 0.00 0.00
0.06 0.05 0.04 0.04 0.05 0.07 0.10 0.13 0.13 0.13 0.14 0.15 0.13 0.11 0.09 0.07 0.06 0.04 0.03 0.02 0.01 0.00 0.00 0.00 0.00 0.00 0.00 0.00 0.00 0.00 0.00 0.00 0.00 0.00 0.00 0.00 0.00 0.00 0.00 0.00 0.00 0.00 0.00
0.06 0.05 0.04 0.04 0.04 0.06 0.08 0.10 0.10 0.11 0.12 0.11 0.08 0.07 0.06 0.04 0.04 0.04 0.03 0.02 0.01 0.00 0.00 0.00 0.00 0.00 0.00 0.00 0.00 0.00 0.00 0.00 0.00 0.00 0.00 0.00 0.00 0.00 0.00 0.00 0.00 0.00 0.00
MSLP
1011.10 1010.97 1010.83 1010.67 1010.45 1010.18 1009.86 1009.52 1009.16 1008.83 1008.54 1008.31 1008.14 1008.02 1007.92 1007.80 1007.62 1007.36 1006.96 1006.43 1005.75 1004.97 1004.14 1003.32 1002.59 1002.03 1001.70 1001.67 1001.93 1002.47 1003.24 1004.17 1005.16 1006.12 1006.99 1007.69 1008.21 1008.55 1008.76 1008.88 1008.99 1009.14 1009.37
1011.15 1010.95 1010.73 1010.49 1010.20 1009.86 1009.47 1009.05 1008.63 1008.25 1007.92 1007.66 1007.49 1007.38 1007.30 1007.23 1007.11 1006.90 1006.56 1006.07 1005.43 1004.67 1003.84 1003.01 1002.26 1001.67 1001.33 1001.28 1001.54 1002.09 1002.89 1003.87 1004.92 1005.97 1006.92 1007.72 1008.32 1008.74 1009.00 1009.17 1009.29 1009.44 1009.67
1011.13 1010.86 1010.58 1010.27 1009.92 1009.52 1009.08 1008.62 1008.17 1007.76 1007.41 1007.14 1006.96 1006.86 1006.81 1006.77 1006.70 1006.54 1006.27 1005.84 1005.27 1004.57 1003.79 1003.00 1002.28 1001.71 1001.37 1001.31 1001.55 1002.09 1002.87 1003.84 1004.89 1005.95 1006.92 1007.74 1008.38 1008.83 1009.12 1009.31 1009.44 1009.59 1009.81
1011.00 1010.66 1010.33 1009.97 1009.58 1009.16 1008.70 1008.24 1007.78 1007.36 1007.01 1006.75 1006.57 1006.48 1006.44 1006.43 1006.39 1006.29 1006.09 1005.75 1005.27 1004.68 1004.00 1003.30 1002.65 1002.14 1001.82 1001.76 1001.98 1002.48 1003.21 1004.10 1005.10 1006.09 1007.02 1007.81 1008.43 1008.87 1009.17 1009.35 1009.49 1009.63 1009.84
1010.72 1010.34 1009.96 1009.58 1009.18 1008.75 1008.31 1007.86 1007.42 1007.02 1006.69 1006.43 1006.26 1006.17 1006.14 1006.15 1006.15 1006.10 1005.98 1005.74 1005.39 1004.93 1004.39 1003.83 1003.30 1002.88 1002.62 1002.58 1002.78 1003.21 1003.85 1004.65 1005.53 1006.42 1007.25 1007.96 1008.52 1008.92 1009.19 1009.36 1009.49 1009.62 1009.81
1010.29 1009.88 1009.48 1009.09 1008.69 1008.28 1007.86 1007.45 1007.05 1006.68 1006.37 1006.13 1005.96 1005.87 1005.84 1005.86 1005.89 1005.90 1005.85 1005.73 1005.52 1005.23 1004.87 1004.47 1004.10 1003.80 1003.63 1003.62 1003.80 1004.18 1004.72 1005.39 1006.14 1006.89 1007.59 1008.20 1008.68 1009.02 1009.26 1009.40 1009.51 1009.63 1009.81
1009.74 1009.31 1008.90 1008.51 1008.12 1007.73 1007.35 1006.98 1006.62 1006.29 1006.00 1005.76 1005.60 1005.50 1005.47 1005.49 1005.54 1005.60 1005.65 1005.65 1005.59 1005.47 1005.30 1005.10 1004.91 1004.75 1004.68 1004.73 1004.91 1005.24 1005.69 1006.24 1006.84 1007.46 1008.03 1008.52 1008.92 1009.20 1009.39 1009.52 1009.61 1009.72 1009.88
1009.11 1008.67 1008.25 1007.86 1007.49 1007.13 1006.78 1006.44 1006.12 1005.81 1005.53 1005.30 1005.13 1005.02 1004.98 1005.00 1005.07 1005.18 1005.31 1005.43 1005.52 1005.58 1005.61 1005.60 1005.59 1005.59 1005.64 1005.75 1005.95 1006.24 1006.62 1007.06 1007.55 1008.04 1008.49 1008.89 1009.21 1009.45 1009.61 1009.72 1009.81 1009.91 1010.04
1008.42 1007.98 1007.57 1007.19 1006.83 1006.49 1006.17 1005.85 1005.55 1005.25 1004.98 1004.74 1004.56 1004.43 1004.38 1004.40 1004.49 1004.64 1004.84 1005.07 1005.31 1005.53 1005.73 1005.91 1006.07 1006.22 1006.38 1006.56 1006.79 1007.07 1007.40 1007.77 1008.16 1008.56 1008.93 1009.26 1009.53 1009.74 1009.89 1010.00 1010.09 1010.18 1010.30
1007.72 1007.29 1006.88 1006.51 1006.17 1005.84 1005.53 1005.23 1004.93 1004.64 1004.37 1004.12 1003.92 1003.78 1003.72 1003.74 1003.86 1004.05 1004.32 1004.64 1004.99 1005.35 1005.70 1006.03 1006.33 1006.61 1006.86 1007.12 1007.38 1007.66 1007.96 1008.28 1008.62 1008.96 1009.29 1009.58 1009.83 1010.03 1010.19 1010.31 1010.41 1010.51 1010.62
1007.00 1006.59 1006.20 1005.84 1005.51 1005.20 1004.89 1004.60 1004.30 1004.01 1003.74 1003.49 1003.29 1003.15 1003.09 1003.12 1003.26 1003.49 1003.81 1004.20 1004.64 1005.10 1005.56 1006.00 1006.40 1006.77 1007.10 1007.41 1007.71 1008.00 1008.29 1008.60 1008.91 1009.23 1009.53 1009.81 1010.07 1010.28 1010.46 1010.61 1010.73 1010.84 1010.96
1006.26 1005.87 1005.51 1005.17 1004.85 1004.55 1004.26 1003.97 1003.68 1003.40 1003.13 1002.89 1002.70 1002.58 1002.54 1002.60 1002.76 1003.03 1003.39 1003.83 1004.33 1004.85 1005.37 1005.87 1006.34 1006.76 1007.14 1007.49 1007.81 1008.11 1008.42 1008.72 1009.03 1009.35 1009.66 1009.95 1010.23 1010.47 1010.68 1010.86 1011.01 1011.14 1011.26
1005.48 1005.12 1004.79 1004.48 1004.18 1003.90 1003.62 1003.34 1003.07 1002.80 1002.56 1002.34 1002.19 1002.10 1002.10 1002.20 1002.40 1002.71 1003.10 1003.57 1004.09 1004.63 1005.18 1005.70 1006.19 1006.63 1007.03 1007.39 1007.73 1008.05 1008.37 1008.69 1009.02 1009.35 1009.68 1010.00 1010.30 1010.58 1010.82 1011.03 1011.21 1011.36 1011.50
1004.64 1004.32 1004.02 1003.74 1003.47 1003.20 1002.94 1002.68 1002.43 1002.20 1001.99 1001.82 1001.72 1001.69 1001.75 1001.90 1002.15 1002.50 1002.92 1003.40 1003.92 1004.46 1004.99 1005.50 1005.98 1006.41 1006.81 1007.18 1007.53 1007.86 1008.20 1008.55 1008.90 1009.26 1009.62 1009.97 1010.30 1010.61 1010.88 1011.12 1011.33 1011.51 1011.66
1003.74 1003.46 1003.20 1002.94 1002.69 1002.45 1002.21 1001.97 1001.75 1001.55 1001.40 1001.29 1001.25 1001.30 1001.42 1001.64 1001.95 1002.33 1002.77 1003.25 1003.76 1004.28 1004.78 1005.26 1005.71 1006.12 1006.51 1006.88 1007.23 1007.59 1007.96 1008.33 1008.72 1009.11 1009.50 1009.88 1010.24 1010.58 1010.88 1011.14 1011.37 1011.57 1011.74
1002.83 1002.58 1002.33 1002.10 1001.86 1001.63 1001.40 1001.18 1000.98 1000.83 1000.72 1000.68 1000.72 1000.84 1001.04 1001.32 1001.68 1002.10 1002.56 1003.05 1003.54 1004.03 1004.50 1004.94 1005.36 1005.75 1006.13 1006.50 1006.88 1007.26 1007.66 1008.07 1008.50 1008.93 1009.35 1009.76 1010.14 1010.50 1010.82 1011.10 1011.35 1011.56 1011.76
1001.94 1001.70 1001.47 1001.23 1001.00 1000.76 1000.53 1000.32 1000.14 1000.01 999.95 999.96 1000.07 1000.26 1000.53 1000.88 1001.29 1001.74 1002.22 1002.71 1003.19 1003.66 1004.10 1004.51 1004.91 1005.29 1005.68 1006.06 1006.47 1006.89 1007.33 1007.79 1008.26 1008.72 1009.18 1009.61 1010.01 1010.38 1010.71 1011.00 1011.26 1011.50 1011.71
1001.13 1000.89 1000.65 1000.40 1000.14 999.88 999.64 999.41 999.24 999.12 999.09 999.15 999.30 999.55 999.88 1000.28 1000.74 1001.22 1001.72 1002.21 1002.69 1003.14 1003.56 1003.97 1004.36 1004.76 1005.16 1005.58 1006.02 1006.49 1006.98 1007.49 1008.00 1008.50 1008.98 1009.44 1009.85 1010.22 1010.56 1010.86 1011.13 1011.37 1011.60
1000.42 1000.17 999.91 999.63 999.35 999.05 998.77 998.52 998.33 998.22 998.20 998.28 998.47 998.75 999.13 999.57 1000.05 1000.56 1001.07 1001.57 1002.05 1002.50 1002.93 1003.34 1003.75 1004.17 1004.60 1005.07 1005.56 1006.09 1006.63 1007.18 1007.73 1008.26 1008.77 1009.23 1009.65 1010.02 1010.36 1010.66 1010.93 1011.18 1011.42
999.82 999.56 999.28 998.97 998.64 998.31 997.99 997.71 997.50 997.37 997.35 997.43 997.64 997.95 998.34 998.81 999.31 999.84 1000.36 1000.87 1001.35 1001.81 1002.26 1002.69 1003.12 1003.58 1004.06 1004.57 1005.12 1005.69 1006.28 1006.87 1007.45 1008.01 1008.52 1008.99 1009.40 1009.77 1010.09 1010.38 1010.65 1010.90 1011.14
999.31 999.05 998.75 998.42 998.06 997.69 997.34 997.03 996.79 996.65 996.61 996.70 996.91 997.23 997.63 998.10 998.62 999.15 999.68 1000.20 1000.69 1001.16 1001.62 1002.08 1002.55 1003.04 1003.57 1004.13 1004.72 1005.33 1005.95 1006.57 1007.16 1007.72 1008.23 1008.69 1009.09 1009.44 1009.74 1010.02 1010.27 1010.50 1010.74
998.85 998.59 998.29 997.95 997.58 997.20 996.83 996.50 996.25 996.10 996.06 996.14 996.35 996.66 997.07 997.54 998.06 998.59 999.12 999.63 1000.13 1000.62 1001.09 1001.58 1002.08 1002.60 1003.16 1003.75 1004.37 1005.01 1005.65 1006.27 1006.86 1007.41 1007.90 1008.33 1008.71 1009.03 1009.30 1009.55 1009.78 1010.00 1010.21
998.37 998.14 997.87 997.54 997.18 996.81 996.44 996.13 995.88 995.73 995.70 995.78 995.99 996.31 996.71 997.17 997.68 998.20 998.72 999.23 999.73 1000.22 1000.71 1001.21 1001.72 1002.27 1002.85 1003.46 1004.09 1004.73 1005.36 1005.97 1006.54 1007.06 1007.52 1007.91 1008.25 1008.53 1008.77 1008.99 1009.18 1009.38 1009.57
997.85 997.66 997.43 997.14 996.82 996.48 996.15 995.86 995.64 995.52 995.50 995.60 995.82 996.13 996.52 996.98 997.46 997.97 998.48 998.98 999.47 999.96 1000.45 1000.95 1001.47 1002.03 1002.61 1003.22 1003.84 1004.47 1005.08 1005.66 1006.19 1006.67 1007.08 1007.43 1007.72 1007.96 1008.16 1008.34 1008.51 1008.67 1008.85
997.27 997.13 996.95 996.72 996.45 996.16 995.89 995.65 995.48 995.39 995.41 995.53 995.75 996.07 996.46 996.90 997.37 997.85 998.34 998.82 999.30 999.78 1000.26 1000.76 1001.28 1001.83 1002.40 1002.99 1003.60 1004.20 1004.78 1005.32 1005.80 1006.23 1006.59 1006.89 1007.13 1007.33 1007.49 1007.64 1007.78 1007.93 1008.09
996.67 996.59 996.46 996.28 996.07 995.84 995.63 995.45 995.33 995.29 995.35 995.49 995.73 996.05 996.44 996.86 997.32 997.78 998.24 998.71 999.16 999.62 1000.09 1000.58 1001.09 1001.62 1002.18 1002.76 1003.33 1003.90 1004.44 1004.93 1005.37 1005.75 1006.06 1006.31 1006.51 1006.67 1006.80 1006.92 1007.04 1007.18 1007.34
Thickness
5679 5680 5681 5682 5683 5684 5683 5684 5683 5682 5681 5679 5677 5676 5674 5673 5672 5671 5671 5670 5670 5671 5671 5673 5675 5677 5680 5683 5685 5687 5687 5685 5680 5677 5677 5677 5676 5677 5677 5676 5675 5674 5671
5666 5667 5668 5669 5671 5672 5674 5675 5675 5675 5675 5673 5672 5670 5669 5668 5667 5665 5664 5664 5664 5664 5665 5666 5668 5671 5673 5676 5678 5679 5679 5679 5674 5667 5665 5665 5665 5667 5667 5667 5667 5667 5663
5652 5652 5654 5655 5657 5659 5661 5664 5665 5666 5667 5666 5665 5664 5663 5662 5661 5659 5658 5657 5657 5657 5658 5659 5660 5662 5664 5667 5669 5670 5671 5671 5667 5662 5657 5656 5655 5657 5657 5657 5657 5656 5656
5636 5637 5637 5639 5641 5645 5648 5651 5654 5656 5657 5658 5658 5657 5657 5656 5655 5653 5652 5650 5650 5650 5651 5651 5652 5653 5655 5657 5659 5660 5661 5660 5657 5653 5649 5647 5646 5647 5648 5647 5645 5646 5647
5619 5620 5620 5622 5626 5629 5632 5636 5640 5643 5647 5648 5649 5650 5650 5649 5649 5647 5644 5644 5643 5643 5643 5643 5643 5643 5644 5647 5649 5650 5650 5649 5647 5644 5640 5638 5638 5638 5639 5640 5639 5638 5638
5602 5603 5604 5605 5608 5611 5615 5619 5624 5628 5633 5636 5638 5640 5642 5644 5639 5634 5634 5636 5636 5636 5635 5635 5634 5634 5633 5634 5636 5638 5640 5640 5638 5636 5633 5632 5630 5631 5632 5633 5632 5632 5631
5582 5583 5585 5586 5589 5592 5597 5601 5606 5611 5617 5621 5626 5629 5632 5633 5628 5626 5624 5628 5630 5629 5628 5627 5628 5626 5625 5625 5624 5625 5626 5627 5629 5629 5626 5624 5622 5623 5624 5624 5626 5628 5626
5562 5563 5564 5566 5568 5572 5576 5581 5586 5593 5599 5605 5611 5617 5621 5623 5619 5617 5617 5621 5623 5622 5621 5620 5619 5617 5617 5617 5617 5615 5614 5614 5616 5618 5617 5616 5615 5616 5617 5619 5618 5617 5617
5542 5543 5544 5546 5548 5551 5555 5561 5567 5573 5581 5589 5596 5603 5609 5612 5610 5609 5609 5615 5616 5614 5613 5613 5612 5610 5605 5606 5608 5605 5603 5602 5602 5604 5604 5604 5604 5606 5609 5612 5612 5614 5613
5527 5527 5528 5529 5531 5535 5539 5544 5550 5556 5564 5572 5581 5589 5596 5603 5602 5601 5601 5609 5609 5607 5605 5604 5601 5601 5595 5597 5600 5598 5596 5595 5595 5595 5594 5595 5597 5598 5601 5606 5610 5612 5610
5517 5517 5518 5519 5520 5524 5528 5532 5536 5542 5549 5557 5567 5576 5584 5592 5593 5593 5594 5603 5604 5602 5600 5599 5595 5589 5588 5590 5592 5593 5590 5591 5591 5591 5591 5591 5592 5594 5597 5599 5603 5608 5607
5510 5510 5511 5512 5513 5518 5521 5523 5527 5531 5537 5545 5554 5564 5573 5581 5585 5585 5586 5590 5596 5596 5595 5595 5588 5581 5581 5582 5585 5583 5583 5586 5589 5589 5589 5589 5590 5590 5591 5592 5592 5594 5596
5505 5505 5505 5507 5508 5510 5513 5517 5520 5525 5530 5537 5544 5552 5562 5571 5577 5578 5577 5580 5585 5589 5590 5586 5579 5574 5573 5575 5574 5576 5578 5585 5586 5586 5585 5586 5586 5585 5585 5584 5585 5586 5588
5500 5500 5501 5503 5504 5507 5509 5513 5517 5521 5525 5531 5536 5543 5552 5561 5569 5571 5570 5572 5574 5578 5579 5573 5569 5568 5572 5570 5569 5572 5579 5583 5584 5584 5584 5583 5582 5582 5584 5585 5586 5587 5587
5497 5497 5498 5499 5501 5503 5506 5509 5512 5516 5518 5522 5529 5535 5542 5553 5562 5567 5571 5572 5575 5578 5575 5573 5571 5571 5573 5573 5574 5576 5578 5578 5581 5582 5581 5581 5581 5582 5583 5584 5585 5587 5587
5492 5493 5494 5496 5497 5499 5501 5505 5508 5509 5511 5513 5517 5523 5535 5543 5551 5557 5562 5566 5568 5569 5572 5574 5574 5574 5576 5576 5577 5576 5577 5578 5579 5580 5580 5581 5581 5581 5580 5581 5582 5584 5583
5488 5488 5489 5490 5491 5493 5495 5498 5502 5506 5507 5509 5512 5518 5526 5534 5542 5549 5553 5556 5559 5562 5570 5575 5576 5577 5578 5578 5578 5578 5578 5579 5578 5580 5580 5580 5579 5579 5579 5579 5579 5579 5578
5484 5484 5483 5484 5485 5487 5491 5494 5498 5503 5509 5513 5514 5516 5523 5529 5536 5542 5545 5548 5554 5560 5572 5575 5577 5578 5579 5580 5580 5581 5580 5578 5577 5579 5578 5578 5578 5578 5577 5576 5576 5574 5574
5479 5479 5479 5480 5481 5484 5488 5492 5497 5501 5506 5512 5517 5519 5521 5526 5531 5537 5544 5555 5561 5565 5573 5577 5579 5580 5581 5581 5581 5581 5580 5579 5578 5578 5577 5576 5576 5576 5574 5574 5572 5562 5568
5475 5475 5474 5477 5480 5484 5488 5492 5497 5502 5507 5512 5518 5523 5524 5528 5535 5538 5548 5559 5565 5569 5575 5579 5581 5582 5582 5582 5581 5581 5581 5579 5577 5576 5576 5575 5574 5574 5572 5570 5569 5567 5566
5474 5474 5474 5477 5481 5486 5489 5493 5498 5503 5510 5516 5523 5528 5530 5539 5545 5548 5555 5564 5569 5573 5577 5580 5582 5583 5583 5582 5582 5581 5581 5580 5578 5577 5576 5574 5573 5571 5570 5569 5567 5565 5564
5474 5475 5477 5480 5485 5489 5493 5498 5503 5509 5516 5523 5528 5531 5534 5546 5552 5556 5561 5568 5574 5577 5580 5582 5584 5584 5585 5584 5583 5581 5581 5580 5579 5577 5575 5573 5571 5569 5568 5566 5564 5562 5559
5477 5478 5481 5485 5490 5493 5499 5505 5511 5516 5524 5530 5537 5540 5545 5554 5560 5563 5568 5573 5577 5580 5582 5584 5585 5586 5586 5584 5584 5583 5582 5581 5580 5577 5575 5572 5570 5567 5565 5563 5560 5558 5556
5481 5484 5487 5492 5497 5503 5508 5513 5518 5525 5533 5539 5545 5549 5554 5560 5566 5570 5574 5578 5580 5582 5584 5585 5586 5587 5585 5584 5583 5583 5583 5581 5579 5576 5572 5571 5568 5566 5563 5560 5558 5556 5553
5487 5491 5495 5500 5504 5510 5515 5521 5527 5533 5541 5548 5553 5557 5561 5566 5571 5575 5578 5581 5582 5584 5585 5586 5586 5586 5585 5583 5583 5582 5580 5576 5574 5573 5570 5567 5565 5563 5560 5558 5555 5553 5550
5496 5500 5504 5508 5512 5518 5524 5529 5535 5541 5548 5554 5559 5564 5568 5573 5577 5580 5582 5583 5584 5585 5585 5586 5586 5586 5584 5582 5581 5578 5573 5570 5567 5564 5565 5564 5562 5560 5557 5555 5552 5550 5547